Date String (YYYY-MM-DD hh:mm:ss) UTC,Instrument flags,absolute air pressure of the measurement (hPa),sample flow rate (lpm),inlet stack bypass flow (lpm),air temperature of the measurement (°C),ambient temperature measured by the external sensor (°C),aerosol sample conditioner tube jacket temperature (°C),OPC LED temperature (°C),internal box temperature (°C),relative humidity of the measurement (%),span deviation,mass concentration of particles derived from Lorenz-Mie calculation of OPC scattering (μg/m³),mass concentration of particles derived from Lorenz-Mie calculation of OPC scattering (μg/m³),mass concentration of particles derived from Lorenz-Mie calculation of OPC scattering (μg/m³)
DateTimeUTC,F1_M11,P_M11,Q1_M11,Q2_M11,T1_M11,T2_M11,T3_M11,T4_M11,T5_M11,U1_M11,ZSPAN_M11,X0_M11,X2_M11,X1_M11
2023-12-22 08:00:00,SystemResetWarning,0832.5,4.99,000.00,023.6,022.5,000.0,032.1,024.9,12.9,0000.0,0005.17,0001.99,0001.61
2023-12-22 08:01:00,SystemResetWarning,0832.5,5.00,000.00,023.6,022.5,000.0,032.1,024.9,12.9,0000.0,0003.95,0001.97,0001.58
2023-12-22 08:02:00,SystemResetWarning,0832.5,5.00,000.00,023.6,022.5,000.0,032.1,024.9,12.8,0000.0,0003.33,0001.95,0001.55
2023-12-22 08:03:00,SystemResetWarning,0832.5,5.01,000.00,023.6,022.5,000.0,032.1,024.9,12.8,0000.0,0003.24,0001.89,0001.53
2023-12-22 08:04:00,SystemResetWarning,0832.5,5.00,000.00,023.6,022.5,000.0,032.0,024.9,12.8,0000.0,0003.12,0001.83,0001.50
2023-12-22 08:05:00,SystemResetWarning,0832.5,4.98,000.00,023.6,022.5,000.0,032.0,024.9,12.9,0000.0,0003.02,0001.76,0001.46
2023-12-22 08:06:00,SystemResetWarning,0832.6,5.01,000.00,023.6,022.5,000.0,032.0,024.9,13.0,0000.0,0003.01,0001.73,0001.44
2023-12-22 08:07:00,SystemResetWarning,0832.5,5.01,000.00,023.6,022.5,000.0,032.0,024.9,13.0,0000.0,0003.24,0001.78,0001.44
2023-12-22 08:08:00,SystemResetWarning,0832.5,5.01,000.00,023.5,022.4,000.0,032.0,024.9,13.0,0000.0,0002.80,0001.78,0001.45
2023-12-22 08:09:00,SystemResetWarning,0832.5,5.00,000.00,023.5,022.4,000.0,032.0,024.9,12.9,0000.0,0002.58,0001.77,0001.45
2023-12-22 08:10:00,SystemResetWarning,0832.5,4.99,000.00,023.5,022.4,000.0,032.0,024.8,12.9,0000.0,0002.81,0001.77,0001.44
2023-12-22 08:11:00,SystemResetWarning,0832.5,4.99,000.00,023.5,022.4,000.0,032.0,024.8,13.0,0000.0,0003.28,0001.76,0001.45
2023-12-22 08:12:00,SystemResetWarning,0832.5,5.00,000.00,023.5,022.4,000.0,032.0,024.9,13.2,0000.0,0004.09,0001.75,0001.47
2023-12-22 08:13:00,SystemResetWarning,0832.5,5.01,000.00,023.5,022.4,000.0,032.0,024.8,13.1,0000.0,0005.51,0001.74,0001.47
2023-12-22 08:14:00,SystemResetWarning,0832.5,5.01,000.00,023.5,022.4,000.0,031.9,024.8,13.1,0000.0,0006.68,0001.80,0001.49
2023-12-22 08:15:00,SystemResetWarning,0832.5,5.00,000.00,023.5,022.3,000.0,031.9,024.8,13.1,0000.0,0006.76,0001.85,0001.51
2023-12-22 08:16:00,SystemResetWarning,0832.5,4.99,000.00,023.5,022.3,000.0,031.9,024.8,13.0,0000.0,0006.82,0001.89,0001.54
2023-12-22 08:17:00,SystemResetWarning,0832.5,4.99,000.00,023.4,022.3,000.0,031.9,024.8,13.0,0000.0,0006.92,0001.93,0001.58
2023-12-22 08:18:00,SystemResetWarning,0832.5,5.00,000.00,023.4,022.3,000.0,031.9,024.8,13.0,0000.0,0006.77,0001.91,0001.57
2023-12-22 08:19:00,SystemResetWarning,0832.5,5.00,000.00,023.4,022.3,000.0,031.9,024.8,13.0,0000.0,0006.96,0001.90,0001.55
2023-12-22 08:20:00,SystemResetWarning,0832.5,5.00,000.00,023.4,022.3,000.0,031.9,024.8,13.1,0000.0,0006.94,0001.85,0001.51
2023-12-22 08:21:00,SystemResetWarning,0832.5,5.01,000.00,023.4,022.3,000.0,031.9,024.7,13.1,0000.0,0006.85,0001.82,0001.49
2023-12-22 08:22:00,SystemResetWarning,0832.5,5.01,000.00,023.4,022.3,000.0,031.9,024.7,13.1,0000.0,0006.22,0001.84,0001.48
2023-12-22 08:23:00,SystemResetWarning,0832.6,5.00,000.00,023.4,022.3,000.0,031.9,024.6,13.1,0000.0,0006.87,0001.81,0001.48
2023-12-22 08:24:00,SystemResetWarning,0832.6,4.99,000.00,023.4,022.3,000.0,031.8,024.7,13.0,0000.0,0006.01,0001.87,0001.49
2023-12-22 08:25:00,SystemResetWarning,0832.6,4.99,000.00,023.4,022.3,000.0,031.8,024.7,13.0,0000.0,0004.64,0001.88,0001.48
2023-12-22 08:26:00,SystemResetWarning,0832.6,5.00,000.00,023.3,022.2,000.0,031.8,024.7,13.1,0000.0,0004.59,0001.85,0001.46
2023-12-22 08:27:00,SystemResetWarning,0832.6,5.00,000.00,023.3,022.2,000.0,031.8,024.7,13.1,0000.0,0004.59,0001.81,0001.43
2023-12-22 08:28:00,SystemResetWarning,0832.6,5.00,000.00,023.3,022.2,000.0,031.8,024.7,13.0,0000.0,0004.52,0001.80,0001.40
2023-12-22 08:29:00,SystemResetWarning,0832.6,5.00,000.00,023.3,022.2,000.0,031.8,024.7,13.0,0000.0,0004.44,0001.75,0001.39
2023-12-22 08:30:00,SystemResetWarning,0832.6,4.99,000.00,023.3,022.2,000.0,031.8,024.7,13.0,0000.0,0004.24,0001.74,0001.40
2023-12-22 08:31:00,SystemResetWarning,0832.6,5.00,000.00,023.3,022.2,000.0,031.8,024.7,13.0,0000.0,0004.36,0001.80,0001.43
2023-12-22 08:32:00,SystemResetWarning,0832.6,5.00,000.00,023.3,022.2,000.0,031.8,024.8,13.0,0000.0,0004.37,0001.81,0001.45
2023-12-22 08:33:00,SystemResetWarning,0832.6,5.00,000.00,023.3,022.3,000.0,031.7,024.8,12.9,0000.0,0004.38,0001.80,0001.46
2023-12-22 08:34:00,SystemResetWarning,0832.6,5.00,000.00,023.3,022.3,000.0,031.7,024.8,12.9,0000.0,0003.62,0001.79,0001.45
2023-12-22 08:35:00,SystemResetWarning,0832.6,5.00,000.00,023.4,022.3,000.0,031.7,024.8,13.0,0000.0,0003.30,0001.77,0001.45
2023-12-22 08:36:00,SystemResetWarning,0832.6,5.00,000.00,023.4,022.3,000.0,031.7,024.8,12.9,0000.0,0003.31,0001.74,0001.46
2023-12-22 08:37:00,SystemResetWarning,0832.6,5.00,000.00,023.4,022.3,000.0,031.7,024.8,12.9,0000.0,0003.25,0001.71,0001.47
2023-12-22 08:38:00,SystemResetWarning,0832.5,5.00,000.00,023.4,022.3,000.0,031.7,024.8,12.9,0000.0,0003.22,0001.72,0001.48
2023-12-22 08:39:00,SystemResetWarning,0832.6,5.00,000.00,023.4,022.3,000.0,031.7,024.8,12.9,0000.0,0003.07,0001.69,0001.49
2023-12-22 08:40:00,SystemResetWarning,0832.5,5.00,000.00,023.4,022.3,000.0,031.7,024.8,12.9,0000.0,0003.09,0001.69,0001.49
2023-12-22 08:41:00,SystemResetWarning,0832.5,5.00,000.00,023.4,022.3,000.0,031.7,024.8,12.9,0000.0,0003.07,0001.68,0001.48
2023-12-22 08:42:00,SystemResetWarning,0832.6,5.00,000.00,023.4,022.3,000.0,031.7,024.8,12.9,0000.0,0002.90,0001.64,0001.47
2023-12-22 08:43:00,SystemResetWarning,0832.6,5.00,000.00,023.3,022.3,000.0,031.7,024.7,12.9,0000.0,0002.87,0001.63,0001.45
2023-12-22 08:44:00,SystemResetWarning,0832.5,5.00,000.00,023.3,022.3,000.0,031.7,024.7,12.9,0000.0,0002.84,0001.63,0001.45
2023-12-22 08:45:00,SystemResetWarning,0832.6,5.00,000.00,023.3,022.3,000.0,031.7,024.8,13.0,0000.0,0002.75,0001.64,0001.44
2023-12-22 08:46:00,SystemResetWarning,0832.5,5.00,000.00,023.3,022.2,000.0,031.7,024.7,13.0,0000.0,0002.56,0001.62,0001.43
2023-12-22 08:47:00,SystemResetWarning,0832.6,4.99,000.00,023.3,022.2,000.0,031.7,024.7,13.1,0000.0,0002.60,0001.62,0001.41
2023-12-22 08:48:00,SystemResetWarning,0832.5,4.99,000.00,023.3,022.2,000.0,031.7,024.7,13.1,0000.0,0002.61,0001.61,0001.39
2023-12-22 08:49:00,SystemResetWarning,0832.5,5.00,000.00,023.3,022.2,000.0,031.7,024.6,13.0,0000.0,0002.62,0001.60,0001.38
2023-12-22 08:50:00,SystemResetWarning,0832.5,5.00,000.00,023.3,022.2,000.0,031.7,024.7,12.9,0000.0,0002.68,0001.62,0001.38
2023-12-22 08:51:00,SystemResetWarning,0832.5,5.00,000.00,023.3,022.2,000.0,031.7,024.7,12.9,0000.0,0002.70,0001.62,0001.37
2023-12-22 08:52:00,SystemResetWarning,0832.5,5.00,000.00,023.3,022.2,000.0,031.7,024.7,12.9,0000.0,0002.71,0001.63,0001.37
2023-12-22 08:53:00,SystemResetWarning,0832.5,5.00,000.00,023.3,022.2,000.0,031.7,024.7,12.8,0000.0,0002.80,0001.66,0001.35
2023-12-22 08:54:00,SystemResetWarning,0832.5,5.00,000.00,023.3,022.2,000.0,031.7,024.7,12.9,0000.0,0002.94,0001.70,0001.35
2023-12-22 08:55:00,SystemResetWarning,0832.6,5.00,000.00,023.3,022.2,000.0,031.6,024.7,12.9,0000.0,0003.03,0001.73,0001.34
2023-12-22 08:56:00,SystemResetWarning,0832.6,5.00,000.00,023.3,022.2,000.0,031.6,024.7,12.9,0000.0,0003.04,0001.72,0001.33
2023-12-22 08:57:00,SystemResetWarning,0832.5,5.00,000.00,023.3,022.2,000.0,031.6,024.7,12.9,0000.0,0002.75,0001.71,0001.32
2023-12-22 08:58:00,SystemResetWarning,0832.5,5.00,000.00,023.3,022.2,000.0,031.6,024.7,12.9,0000.0,0002.57,0001.70,0001.31
2023-12-22 08:59:00,SystemResetWarning,0832.5,5.00,000.00,023.3,022.2,000.0,031.6,024.7,13.0,0000.0,0002.57,0001.69,0001.31
